To NAV CANADA Home Page Login to a new session Search on AWWS site Feedback and Comments Disclaimer Vers la page française équivalente Tips FAQ What's new on the site To the Forecasts and Observations / NOTAM section To "File a Flight Plan" website Publications and other links Update of the User's profile FIC Telephone Numbers My Weather Data Folder Route Weather Data Regional Weather Data Local Weather Data To the Forecasts and Observations / NOTAM section
Request Generated 02/09/2016 at 09:38:56 UTC . Weather information available at that time is displayed.

METAR/TAF

SALLUIT/QC    

LWIS CYZG 090900Z AUTO 19016KT M26/M30 A3009=
LWIS CYZG 090800Z AUTO 22010G15KT M27/M30 A3011=
LWIS CYZG 090700Z AUTO 21009KT 190V270 M28/M31 A3012=

CYZG - No TAF is issued for this station

Your time UTC time
Weather data provided by Environment Canada and NAV CANADA